Other Surface Observations
Issued by NWS Tucson, AZ

Home | Current Version | Previous Version | Text Only | Print | Product List | Glossary On
Versions: 1 2 3 4 5 6 7 8 9 10 11 12 13 14 15 16 17 18 19 20 21 22 23 24 25 26 27 28 29 30 31 32 33 34 35 36 37 38 39 40 41 42 43 44 45 46 47 48 49 50
000
SXUS55 KTWC 121815
OSOTWC

WEATHER ROUNDUP FOR SOUTHEAST ARIZONA
NATIONAL WEATHER SERVICE TUCSON AZ
1115 AM MST TUE DEC 12 2017

AZZ504>506-514-121915-
LOCATION       SKY/WX    TMP DP  RH WIND       PRES   REMARKS
TUCSON         CLOUDY    67   7   9 SE16G29   30.26F
DAVIS-MONTHAN  PTSUNNY   68   7   9 E6        30.25F
CHILDRENS PARK N/A      N/A N/A  15 SE10              PIMA CO DEQ
ALVERNON/22ND  N/A       60 N/A N/A E6                PIMA CO DEQ
CHERRY/GLENN   N/A      N/A N/A N/A N/A               PIMA CO DEQ
TANGERINE      N/A       57 N/A N/A E2                PIMA CO DEQ
CONTL RANCH    N/A       55  21  26 SE3               PIMA CO DEQ
GRANT/1ST      N/A       60  14  16 SE7               PIMA CO DEQ
CRAYCROFT/22ND N/A       60  12  15 SE5               PIMA CO DEQ
GOLFLINKS/KOLB N/A       61  11  14 SE6               PIMA CO DEQ
AJO/12TH       N/A       61  15  16 E5                PIMA CO DEQ
FAIRGROUNDS    N/A       59 N/A N/A SE17              PIMA CO DEQ
SAGUARO        N/A       70  -7   4 E9G17             *SABINO CYN
SAN CARLOS     N/A       49   5  16 CALM              *SAN CARLOS
GREEN VALLEY   N/A       58  17  20 NE5               PIMA CO DEQ
HORSE CAMP CYN N/A       58  10  15 E14G23            *ARAVAIPA CYN
RINCON MTNS    N/A       42  -1  15 E13G23            *NR MANNING CAMP
$$

AZZ509>511-121915-
LOCATION       SKY/WX    TMP DP  RH WIND       PRES   REMARKS
SAFFORD        MOSUNNY   54   7  15 SE8       30.41F
STRAY HORSE    N/A       51  -5   9 SE2               *
TRAIL CABIN    N/A       51  -1  11 E6G10             *N OF GRANVILLE
BLACK HILLS    NOT AVBL
DRY LAKE       N/A       50  -3  10 SE10G19           *NATANES MTNS
NOON CREEK     N/A       56   4  12 SW8G18            *PINALENO MTNS
COLUMBINE      N/A       48 -18   5 S5G14             *PINALENO MTNS
GUTHRIE        N/A       45   1  16 E10G17            *SW OF GUTHRIE
$$

AZZ502-503-513-121915-
LOCATION       SKY/WX    TMP DP  RH WIND       PRES   REMARKS
NOGALES        PTSUNNY   64  17  16 E9        30.27F
SELLS          N/A       60  16  18 NE3               *
SASABE         N/A       58  18  21 N4                *ALTAR VLY
HOPKINS        N/A       48   9  20 E24G34            *SANTA RITA MTNS
CARR CYN       N/A       54  15  21 E4G16             *W OF HEREFORD
$$

AZZ507-508-512-121915-
LOCATION       SKY/WX    TMP DP  RH WIND       PRES   REMARKS
SIERRA VISTA   CLOUDY    57  14  18 SE16      30.36F
DOUGLAS        MOSUNNY   61  12  14 E20       30.35F
EMPIRE MTNS    NOT AVBL
MULESHOE RANCH N/A       52   7  16 E17G37            *PRESERVE
HEADQUARTERS   N/A       52  10  18 E12G23            *CHIRICAHUA MTNS
$$

.............................NOTES.............................
THIS IS AN AUTOMATED COLLECTIVE WITH MINIMAL QUALITY CONTROL.
PIMA CO DEQ SITES HAVE NONSTANDARD WIND SENSOR HEIGHTS.
PIMA CO DEQ SITES DO NOT REPORT WIND GUSTS.
* INDICATES WIND SENSORS LOCATED AT 20 FEET INSTEAD OF 33 FEET.
..............................KEY..............................
SKY/WX - SKY CONDITION/WEATHER
TMP    - TEMPERATURE IN FAHRENHEIT
DP     - DEWPOINT IN FAHRENHEIT
RH     - RELATIVE HUMIDITY IN PERCENT
WIND   - DIRECTION AND SPEED IN MILES PER HOUR (MPH)
VRB    - VARIABLE WIND DIRECTION
PRES   - MEAN SEA LEVEL PRESSURE IN INCHES OF MERCURY
         F - FALLING PRESSURE   R - RISING PRESSURE
         S - STEADY PRESSURE
VSB    - VISIBILITY IN MILES
HX     - HEAT INDEX IN FAHRENHEIT
WCI    - WIND CHILL INDEX IN FAHRENHEIT
N/A    - NOT AVAILABLE
AFB    - AIR FORCE BASE
         DAVIS-MONTHAN IS DAVIS-MONTHAN AIR FORCE BASE
CYN    - CANYON
MTNS   - MOUNTAINS
NCA    - NATIONAL CONSERVATION AREA
NR     - NEAR
VLY    - VALLEY
CONTL  - CONTINENTAL
PIMA CO DEQ - PIMA COUNTY DEPT OF ENVIRONMENTAL QUALITY



USA.gov is the U.S. government's official web portal to all federal, state and local government web resources and services.